Location: Le Domaine
(47.0333°N, 76.5361°W)
Time: 18:24:52
(UTC-05:00)

S-56A Canister/Altair - Pass Details

Date: 24 November 2019
Orbit: 633 x 2499 km, 38.9° (Epoch: 06 December)

Event Time Altitude Azimuth Distance (km) Brightness Sun altitude
Rises 17:36:37 0° 258° (WSW) 5,438 13.9 -12.3°
Reaches altitude 10° 17:40:45 10° 255° (WSW) 4,157 12.8 -12.9°
Maximum altitude 17:50:38 49° 185° (S) 1,658 9.3 -14.6°
Enters shadow 17:56:34 13° 114° (ESE) 2,605 9.8 -15.6°
Drops below altitude 10° 17:57:12 10° 112° (ESE) 2,802 - -15.7°
Sets 17:59:29 0° 106° (ESE) 3,562 - -16.0°
